Weather History for Hereford, TX

Change the Weather History Date:

Friday, November 9, 2012

  Actual Average (KAMA) Record (KAMA)
Temperature  
Mean Temperature 62 °F 49 °F  
Max Temperature 77 °F 63 °F 84 °F (1934)
Min Temperature 48 °F 35 °F 16 °F (2000)
Degree Days  
Heating Degree Days 2 16  
Month to date heating degree days 127  
Since 1 July heating degree days 407  
Cooling Degree Days 0 0  
Month to date cooling degree days 0  
Year to date cooling degree days 1398  
Growing Degree Days 12 (Base 50)    
Moisture  
Dew Point 34 °F    
Average Humidity 38    
Maximum Humidity 72    
Minimum Humidity 18    
Precipitation  
Precipitation 0.00 in 0.03 in 1.39 in (1905)
Month to date precipitation 0.31  
Year to date precipitation 19.16  
Snow  
Snow 0.00 in 0.10 in 1.60 in (1997)
Month to date snowfall 0.5  
Since 1 July snowfall 0.7  
Since 1 September snowfall 0.7  
Snow Depth -    
Sea Level Pressure  
Sea Level Pressure 29.88 in    
Wind  
Wind Speed 13 mph (WSW)    
Max Wind Speed 30 mph    
Max Gust Speed 37 mph    
Visibility 10 miles    
Events Rain    
T = Trace of Precipitation, MM = Missing Value Source: NWS Daily Summary

Daily Weather History Graph

Daily Weather History Graph

Search for Another Location

Airport:

Trip Planner

Search our weather history database for the weather conditions in past years. The results will help you decide how hot, cold, wet, or windy it might be!

Date:

Astronomy

Nov. 09, 2012 Rise Set
Actual Time 7:18 AM CST 5:47 PM CST
Civil Twilight 6:51 AM CST 6:14 PM CST
Nautical Twilight 6:21 AM CST 6:44 PM CST
Astronomical Twilight 5:51 AM CST 7:14 PM CST
Moon 2:30 AM CST (11/9) 2:52 PM CST (11/9)
Length of Visible Light 11h 22m
Length of Day
10h 29m
Waning Crescent, 23% of the Moon is Illuminated
Nov 9
Waning Crescent
Nov 13
New
Nov 20
First Quarter
Nov 28
Full
Dec 6
Last Quarter

Hourly Weather History & Observations

Time (CST) Temp. Dew Point Humidity Pressure Visibility Wind Dir Wind Speed Gust Speed Precip Events Conditions
12:15 AM 59.0 °F 30.2 °F 34% 29.92 in 10.0 mi SW 11.5 mph - N/A   Clear
12:35 AM 59.0 °F 32.0 °F 36% 29.91 in 10.0 mi SSW 12.7 mph - N/A   Clear
12:55 AM 57.2 °F 32.0 °F 38% 29.91 in 10.0 mi SSW 11.5 mph - N/A   Clear
1:15 AM 55.4 °F 32.0 °F 41% 29.91 in 10.0 mi WSW 6.9 mph - N/A   Clear
1:35 AM 53.6 °F 33.8 °F 47% 29.91 in 10.0 mi SSW 8.1 mph - N/A   Clear
1:55 AM 51.8 °F 33.8 °F 50% 29.91 in 10.0 mi SW 4.6 mph - N/A   Clear
2:15 AM 51.8 °F 35.6 °F 54% 29.90 in 10.0 mi SW 5.8 mph - N/A   Clear
2:35 AM 51.8 °F 35.6 °F 54% 29.90 in 10.0 mi SW 6.9 mph - N/A   Clear
2:55 AM 51.8 °F 37.4 °F 58% 29.90 in 10.0 mi SSW 8.1 mph - N/A   Clear
3:35 AM 51.8 °F 37.4 °F 58% 29.89 in 10.0 mi SW 8.1 mph - N/A   Clear
3:55 AM 51.8 °F 37.4 °F 58% 29.89 in 10.0 mi SW 8.1 mph - N/A   Clear
4:15 AM 51.8 °F 37.4 °F 58% 29.89 in 10.0 mi SW 9.2 mph - N/A   Clear
4:35 AM 51.8 °F 37.4 °F 58% 29.89 in 10.0 mi SW 8.1 mph - N/A   Clear
4:55 AM 50.0 °F 37.4 °F 62% 29.89 in 10.0 mi SW 9.2 mph - N/A   Clear
5:15 AM 50.0 °F 37.4 °F 62% 29.89 in 10.0 mi SSW 10.4 mph - N/A   Clear
5:55 AM 50.0 °F 35.6 °F 58% 29.89 in 10.0 mi SW 11.5 mph - N/A   Clear
6:15 AM 50.0 °F 33.8 °F 54% 29.90 in 10.0 mi SW 10.4 mph - N/A   Clear
6:35 AM 50.0 °F 32.0 °F 50% 29.90 in 10.0 mi SW 9.2 mph - N/A   Clear
6:55 AM 50.0 °F 32.0 °F 50% 29.89 in 10.0 mi SW 12.7 mph - N/A   Clear
7:35 AM 48.2 °F 32.0 °F 54% 29.90 in 10.0 mi WSW 8.1 mph - N/A   Clear
7:55 AM 50.0 °F 30.2 °F 47% 29.90 in 10.0 mi WSW 10.4 mph - N/A   Clear
8:15 AM 53.6 °F 30.2 °F 41% 29.91 in 10.0 mi West 8.1 mph 21.9 mph N/A   Clear
8:35 AM 55.4 °F 30.2 °F 38% 29.91 in 10.0 mi WSW 11.5 mph - N/A   Clear
8:55 AM 59.0 °F 28.4 °F 31% 29.91 in 10.0 mi WSW 12.7 mph - N/A   Clear
9:15 AM 60.8 °F 30.2 °F 31% 29.92 in 10.0 mi WSW 12.7 mph - N/A   Clear
9:35 AM 62.6 °F 30.2 °F 30% 29.93 in 10.0 mi WSW 15.0 mph - N/A   Clear
9:55 AM 64.4 °F 28.4 °F 26% 29.93 in 10.0 mi WSW 15.0 mph - N/A   Clear
10:15 AM 68.0 °F 30.2 °F 24% 29.93 in 10.0 mi WSW 16.1 mph 20.7 mph N/A   Clear
10:55 AM 71.6 °F 32.0 °F 23% 29.93 in 10.0 mi WSW 18.4 mph 27.6 mph N/A   Clear
11:15 AM 71.6 °F 32.0 °F 23% 29.93 in 10.0 mi WSW 21.9 mph 32.2 mph N/A   Clear
11:35 AM 73.4 °F 30.2 °F 20% 29.93 in 10.0 mi WSW 18.4 mph 26.5 mph N/A   Clear
11:55 AM 73.4 °F 30.2 °F 20% 29.91 in 10.0 mi West 21.9 mph 29.9 mph N/A   Clear
12:15 PM 73.4 °F 30.2 °F 20% 29.90 in 10.0 mi WSW 24.2 mph 32.2 mph N/A   Clear
12:35 PM 75.2 °F 32.0 °F 21% 29.88 in 10.0 mi West 25.3 mph 35.7 mph N/A   Clear
12:55 PM 75.2 °F 32.0 °F 21% 29.88 in 10.0 mi West 26.5 mph 36.8 mph N/A   Clear
1:15 PM 77.0 °F 30.2 °F 18% 29.87 in 10.0 mi West 26.5 mph 35.7 mph N/A   Clear
1:35 PM 77.0 °F 30.2 °F 18% 29.86 in 10.0 mi West 25.3 mph 33.4 mph N/A   Clear
1:55 PM 77.0 °F 30.2 °F 18% 29.85 in 10.0 mi WSW 24.2 mph 32.2 mph N/A   Clear
2:15 PM 77.0 °F 32.0 °F 19% 29.84 in 10.0 mi WSW 20.7 mph 33.4 mph N/A   Clear
2:35 PM 77.0 °F 32.0 °F 19% 29.84 in 10.0 mi WSW 26.5 mph 33.4 mph N/A   Clear
2:55 PM 77.0 °F 32.0 °F 19% 29.84 in 10.0 mi WSW 25.3 mph 32.2 mph N/A   Clear
3:15 PM 77.0 °F 32.0 °F 19% 29.83 in 10.0 mi WSW 21.9 mph 36.8 mph N/A   Clear
3:35 PM 77.0 °F 33.8 °F 21% 29.83 in 10.0 mi WSW 23.0 mph 34.5 mph N/A   Clear
3:55 PM 77.0 °F 33.8 °F 21% 29.82 in 10.0 mi SW 29.9 mph 34.5 mph N/A   Clear
4:15 PM 77.0 °F 32.0 °F 19% 29.83 in 10.0 mi SW 25.3 mph 35.7 mph N/A   Clear
4:35 PM 77.0 °F 32.0 °F 19% 29.83 in 10.0 mi SW 20.7 mph 31.1 mph N/A   Clear
4:55 PM 75.2 °F 33.8 °F 22% 29.83 in 10.0 mi WSW 26.5 mph 33.4 mph N/A   Clear
5:15 PM 73.4 °F 33.8 °F 23% 29.83 in 10.0 mi SW 15.0 mph 26.5 mph N/A   Clear
5:35 PM 71.6 °F 33.8 °F 25% 29.83 in 10.0 mi SW 12.7 mph 20.7 mph N/A   Clear
5:55 PM 69.8 °F 33.8 °F 27% 29.84 in 10.0 mi WSW 10.4 mph - N/A   Clear
6:15 PM 68.0 °F 35.6 °F 30% 29.84 in 4.0 mi WSW 9.2 mph - N/A   Haze
6:35 PM 68.0 °F 35.6 °F 30% 29.85 in 3.0 mi WSW 15.0 mph - N/A   Haze
6:55 PM 68.0 °F 35.6 °F 30% 29.86 in 4.0 mi WSW 12.7 mph - N/A   Haze
7:15 PM 62.6 °F 35.6 °F 37% 29.87 in 10.0 mi West 9.2 mph - N/A   Scattered Clouds
7:35 PM 62.6 °F 35.6 °F 37% 29.87 in 10.0 mi West 9.2 mph - N/A   Clear
7:55 PM 60.8 °F 35.6 °F 39% 29.88 in 10.0 mi West 10.4 mph 16.1 mph N/A   Scattered Clouds
8:15 PM 60.8 °F 37.4 °F 42% 29.88 in 10.0 mi West 10.4 mph - N/A   Scattered Clouds
8:35 PM 62.6 °F 37.4 °F 39% 29.88 in 10.0 mi West 10.4 mph - N/A   Mostly Cloudy
8:55 PM 59.0 °F 37.4 °F 45% 29.88 in 10.0 mi West 9.2 mph - N/A   Scattered Clouds
9:15 PM 57.2 °F 37.4 °F 48% 29.88 in 10.0 mi WNW 12.7 mph 21.9 mph N/A   Clear
9:35 PM 57.2 °F 39.2 °F 51% 29.89 in 10.0 mi West 8.1 mph 17.3 mph N/A   Scattered Clouds
9:55 PM 62.6 °F 37.4 °F 39% 29.89 in 10.0 mi West 18.4 mph 25.3 mph N/A   Clear
10:15 PM 60.8 °F 39.2 °F 45% 29.87 in 10.0 mi West 10.4 mph 16.1 mph N/A   Clear
10:35 PM 60.8 °F 39.2 °F 45% 29.87 in 10.0 mi SW 9.2 mph - N/A   Clear
10:55 PM 57.2 °F 39.2 °F 51% 29.88 in 10.0 mi South 11.5 mph - N/A   Scattered Clouds
11:15 PM 59.0 °F 41.0 °F 51% 29.93 in 7.0 mi SSW 19.6 mph 27.6 mph N/A Rain Light Rain
11:35 PM 57.2 °F 46.4 °F 67% 29.89 in 10.0 mi South 20.7 mph 32.2 mph N/A Rain Light Rain
11:55 PM 55.4 °F 46.4 °F 72% 29.88 in 10.0 mi North - - N/A   Scattered Clouds